Weather History for Port Angeles, WA

Change the Weather History Date:

Tuesday, January 22, 2013

  Actual Average Record
Temperature  
Mean Temperature 36 °F -  
Max Temperature 37 °F 46 °F 62 °F (2002)
Min Temperature 35 °F 36 °F 16 °F (1969)
Degree Days  
Heating Degree Days 29    
Moisture  
Dew Point 34 °F    
Average Humidity 88    
Maximum Humidity 93    
Minimum Humidity 83    
Precipitation  
Precipitation 0.00 in - - ()
Sea Level Pressure  
Sea Level Pressure 30.03 in    
Wind  
Wind Speed 3 mph (SSE)    
Max Wind Speed 6 mph    
Max Gust Speed -    
Visibility 10 miles    
Events      
Averages and records for this station are not official NWS values.
T = Trace of Precipitation, MM = Missing Value Source: NWS Daily Summary

Daily Weather History Graph

Daily Weather History Graph

Search for Another Location

Airport:

Trip Planner

Search our weather history database for the weather conditions in past years. The results will help you decide how hot, cold, wet, or windy it might be!

Date:

Astronomy

Jan. 22, 2013 Rise Set
Actual Time 7:53 AM PST 4:58 PM PST
Civil Twilight 7:18 AM PST 5:33 PM PST
Nautical Twilight 6:40 AM PST 6:11 PM PST
Astronomical Twilight 6:03 AM PST 6:48 PM PST
Moon 1:22 PM PST (1/22) 4:22 AM PST (1/22)
Length of Visible Light 10h 14m
Length of Day
9h 05m
Waxing Gibbous, 83% of the Moon is Illuminated
Jan 22
Waxing Gibbous
Jan 26
Full
Feb 3
Last Quarter
Feb 9
New
Feb 17
First Quarter

Hourly Weather History & Observations

Time (PST) Temp. Windchill Dew Point Humidity Pressure Visibility Wind Dir Wind Speed Gust Speed Precip Events Conditions
12:53 AM 37.0 °F - 34.0 °F 89% 30.13 in 10.0 mi Calm Calm - N/A   Overcast
1:53 AM 35.1 °F 31.0 °F 33.1 °F 92% 30.13 in 10.0 mi WSW 4.6 mph - N/A   Overcast
2:53 AM 36.0 °F - 33.1 °F 89% 30.12 in 10.0 mi Calm Calm - N/A   Overcast
3:53 AM 37.4 °F 32.8 °F 33.8 °F 87% 30.10 in 10.0 mi SE 5.8 mph - N/A   Overcast
4:53 AM 36.0 °F 31.1 °F 33.1 °F 89% 30.10 in 10.0 mi SE 5.8 mph - N/A   Overcast
5:53 AM 36.0 °F 32.1 °F 34.0 °F 93% 30.09 in 10.0 mi South 4.6 mph - N/A   Overcast
6:53 AM 36.0 °F 33.3 °F 34.0 °F 93% 30.09 in 10.0 mi SSE 3.5 mph - N/A   Overcast
7:53 AM 36.0 °F 33.3 °F 34.0 °F 93% 30.07 in 10.0 mi SSE 3.5 mph - N/A   Overcast
8:53 AM 37.0 °F 33.3 °F 34.0 °F 89% 30.07 in 10.0 mi SE 4.6 mph - N/A   Overcast
9:53 AM 37.0 °F 34.5 °F 34.0 °F 89% 30.08 in 10.0 mi SSE 3.5 mph - N/A   Overcast
10:53 AM 37.9 °F 35.5 °F 35.1 °F 89% 30.07 in 10.0 mi East 3.5 mph - N/A   Overcast
11:53 AM 37.9 °F 34.4 °F 34.0 °F 86% 30.06 in 10.0 mi SE 4.6 mph - N/A   Overcast
12:53 PM 37.9 °F 34.4 °F 34.0 °F 86% 30.03 in 10.0 mi ESE 4.6 mph - N/A   Overcast
1:53 PM 37.9 °F 33.5 °F 34.0 °F 86% 30.01 in 10.0 mi ESE 5.8 mph - N/A   Overcast
2:53 PM 37.9 °F 35.5 °F 34.0 °F 86% 30.00 in 10.0 mi ESE 3.5 mph - N/A   Overcast
3:53 PM 37.9 °F 35.5 °F 34.0 °F 86% 29.97 in 10.0 mi ESE 3.5 mph - N/A   Overcast
4:53 PM 37.9 °F - 33.1 °F 83% 29.97 in 10.0 mi Calm Calm - N/A   Overcast
5:46 PM 37.0 °F 34.5 °F 33.1 °F 86% 29.95 in 10.0 mi South 3.5 mph - N/A   Scattered Clouds
5:53 PM 36.0 °F - 33.1 °F 89% 29.96 in 10.0 mi Calm Calm - N/A   Partly Cloudy
6:53 PM 36.0 °F 33.3 °F 33.1 °F 89% 29.95 in 10.0 mi SW 3.5 mph - N/A   Clear
7:53 PM 36.0 °F 33.3 °F 33.1 °F 89% 29.95 in 10.0 mi SSW 3.5 mph - N/A   Clear
8:53 PM 36.0 °F - 33.1 °F 89% 29.93 in 10.0 mi Calm Calm - N/A   Overcast
9:53 PM 36.0 °F - 33.1 °F 89% 29.93 in 10.0 mi Calm Calm - N/A   Overcast
10:53 PM 37.0 °F - 33.1 °F 86% 29.94 in 10.0 mi Calm Calm - N/A   Overcast
11:53 PM 37.0 °F 33.3 °F 33.1 °F 86% 29.94 in 10.0 mi Variable 4.6 mph - N/A   Overcast